www.pogodaiklimat.ru
ПОГОДА в Уиндоу-Роке
Время
и дата
10:53 29.11
11:53 29.11
12:53 29.11
13:53 29.11
14:53 29.11
15:53 29.11
16:53 29.11
17:53 29.11
18:53 29.11
19:53 29.11
20:53 29.11
21:53 29.11
22:53 29.11
23:53 29.11
00:53 30.11
01:53 30.11
02:53 30.11
03:53 30.11
04:53 30.11
05:53 30.11
06:53 30.11
07:53 30.11
08:53 30.11
09:53 30.11
10:53 30.11
11:53 30.11
12:53 30.11
13:53 30.11
14:53 30.11
15:53 30.11
16:53 30.12
17:53 30.11
18:53 30.11
19:53 30.11
20:53 30.11
21:53 30.11
22:53 30.11
23:53 30.11
00:53 01.12
01:53 01.12
02:53 01.12
03:53 01.12
04:53 01.12
05:53 01.12
06:53 01.12
07:53 01.12
08:53 01.12
09:53 01.12
Ветер
(напр.,м/с)
Видим. Явления Облачность Т
(С)
Тd
(С)
f
(%)
Тe
(С)
Тes
(С)
Комфортность P
(гПа)
Po
(гПа)
Тmin
(С)
Tmax
(С)
R
(мм)
R24
(мм)
S
(см)
СЗ 9
{13}
16 км 2/2 1200 м +5.0 -6.7 42 0 0 1008.7 789.0 -0.6 +5.0
З 9
{12}
16 км 2/2 1500 м +6.7 -7.8 35 +2 +2 1008.4 789.0
СЗ 8
{11}
16 км 5/5 1650 м +7.2 -8.3 32 +3 +4 1009.0 789.3
З 8
{10}
16 км 5/5 1800 м +7.8 -9.4 28 +4 +4 1009.6 789.8
З 5 16 км ясно +7.8 -9.4 28 +5 +7 1010.4 790.4
З 6
{9}
16 км ясно +6.7 -12.2 24 +3 +4 1012.1 791.1
З 4 16 км ясно +5.0 -11.7 29 +2 +3 1013.3 791.9 +4.4 +7.8
штиль 0 16 км ясно +1.7 -12.2 35 +2 +2 1015.4 792.7
штиль 0 16 км ясно -2.8 -13.3 44 -3 -3 1017.4 793.3
штиль 0 16 км ясно -4.4 -13.3 50 -5 -5 1018.8 794.0
штиль 0 14 км ясно -6.1 -13.9 54 -7 -7 1019.7 794.8
штиль 0 14 км ясно -6.7 -13.9 57 -7 -7 1019.9 795.1
штиль 0 14 км ясно -9.4 -15.0 64 -10 -10 1021.0 795.6 -10.0 +5.0
Ю 2 16 км ясно -10.0 -15.0 67 -14 -14 1021.7 796.4
штиль 0 14 км ясно -10.0 -15.0 67 -10 -10 1021.3 796.2
штиль 0 11 км ясно -11.7 -16.1 70 -12 -12 1021.8 796.4
штиль 0 13 км ясно -11.7 -15.6 73 -12 -12 1021.7 796.4
штиль 0 14 км ясно -10.6 -15.0 70 -11 -11 1022.0 796.7
штиль 0 14 км ясно -11.7 -16.1 70 -12 -12 1022.8 796.4 -12.8 -7.8
штиль 0 16 км ясно -13.3 -16.7 76 -13 -13 1024.1 796.4
СВ 2 16 км ясно -11.7 -15.6 73 -16 -16 1025.6 797.0
штиль 0 8 км мгла ясно -11.7 -16.1 70 -12 -12 1025.8 797.0
штиль 0 14 км ясно -6.1 -13.3 57 -7 -6 1025.2 797.2
штиль 0 16 км ясно 0.0 -12.2 39 0 +2 1023.5 797.0
штиль 0 16 км ясно +4.4 -11.1 31 +4 +9 1022.1 796.4 -13.3 +4.4
штиль 0 16 км ясно +7.8 -8.3 31 +8 +15 1019.9 795.1
нст 3 16 км ясно +9.4 -7.8 29 +8 +13 1018.1 794.3
Ю 4 16 км ясно +11.1 -8.9 24 +9 +13 1017.1 793.5
ЮЗ 3 16 км ясно +12.2 -10.6 19 +11 +15 1016.2 793.0
Ю 5 16 км ясно +12.2 -11.7 18 +11 +12 1015.6 792.7
ЮЗ 4 16 км ясно +8.9 -11.1 23 +7 +7 1017.2 793.3 +4.4 +12.8
Ю 2 16 км ясно +2.2 -12.2 34 0 0 1020.3 793.8
штиль 0 16 км ясно +1.7 -11.7 36 +2 +2 1020.5 794.0
штиль 0 16 км ясно -1.1 -11.7 44 -1 -1 1021.2 794.3
Ю 3 16 км ясно -0.6 -10.0 49 -5 -5 1020.1 794.6
Ю 2 16 км ясно -1.1 -9.4 53 -4 -4 1018.8 794.6
штиль 0 16 км ясно -3.3 -10.0 60 -4 -4 1018.2 794.6 -3.3 +8.9
штиль 0 16 км ясно -6.1 -11.7 65 -7 -7 1017.9 794.6
штиль 0 16 км ясно -6.7 -11.1 71 -7 -7 1017.4 794.3
штиль 0 16 км ясно -7.8 -12.2 71 -8 -8 1017.3 794.3
штиль 0 16 км ясно -8.3 -12.2 73 -9 -9 1016.9 794.3
штиль 0 16 км ясно -8.3 -12.2 73 -9 -9 1016.9 794.3
штиль 0 16 км ясно -8.3 -12.2 73 -9 -9 1017.7 794.0 -8.9 -3.3
штиль 0 16 км ясно -7.8 -11.7 74 -8 -8 1019.7 794.3
штиль 0 16 км ясно -9.4 -12.2 80 -10 -10 1020.5 794.6
штиль 0 16 км ясно -8.3 -12.2 73 -9 -9 1021.2 794.8
штиль 0 16 км ясно -0.6 -8.3 56 -1 -1 1019.3 794.8
штиль 0 16 км ясно +5.6 -6.1 43 +5 +8 1017.6 794.8
Местоположение метеостанции Window Rock Airport: широта 35.6500 долгота -109.0667 высота над уровнем моря 2055 м.
В архиве по умолчанию представлена погода в Уиндоу-Роке за последние 1-2 суток. Обновление информации о фактической погоде в базе происходит ежечасно! Архивные данные за месяц целиком и за предыдущие месяцы Вы можете получить, выбрав интересующий диапазон дат из раскрывающегося списка и нажав кнопку "Ввод!".
Внимание! Архив погоды МЕТАР в базе сайта по станциям, не включенным в климатический монитор, хранится не более 60 дней. Нет смысла пытаться выбрать более раннюю дату.
*Определитесь, кто Вы:
Внимание! Время в таблицах - местное (без учета летнего времени). Для получения всемирного времени необходимо вычесть поправку, которая равна -7 ч.
Смотрите также архив погоды в соседних городах и на ближайших метеорологических станциях:
Партнеры нашего сайта:      
Пояснения к столбцам:
  • Ветер - указаны скорость ветра в м/с - средняя за 10 мин, порывы в срок и между сроками (в фигурных скобках) и направление, откуда дует ветер: С - северный,
  • СВ - северо-восточный, В - восточный, ЮВ - юго-восточный, Ю - южный, ЮЗ - юго-западный, З - западный, СЗ - северо-западный.
  • Видимость - горизонтальная дальность видимости в метрах или километрах. При видимости от 1 до 10 км при отсутствии осадков обычно наблюдается дымка, при ухудшении видимости до 1 км и менее - туман. В сухую погоду видимость может ухудшаться дымом, пылью или мглою.
  • Явления - указаны атмосферные явления, наблюдавшиеся в срок или в последний час перед сроком; фигурными скобками обозначены явления, наблюдавшиеся между сроками (за 1-3 часа до срока); квадратными скобками обозначены град или гололедные отложения с указанием их диаметра в мм.
  • Облачность - указаны через наклонную черту общая и нижняя облачность в баллах и высота нижней границы облаков в метрах; квадратными скобками обозначены формы облаков: Ci - перистые, Cs - перисто-слоистые, Cc - перисто-кучевые, Ac - высококучевые, As - высокослоистые, Sc - слоисто-кучевые, Ns - слоисто-дождевые, Cu - кучевые, Cb - кучево-дождевые. Подробнее классификацию облаков см. в Атласе облаков (PDF).
  • T - Температура воздуха - температура, измеренная на высоте 2 м над землей.
  • Td - Температура точки росы - температура, при понижении до которой содержащийся в воздухе водяной пар достигнет насыщения.
  • f - Относительная влажность воздуха - влажноcть воздуха, измеренная на высоте 2 м над землей.
  • Te - Эффективная температура - температура, которую ощущает одетый по сезону человек в тени. Характеристика душности погоды. При расчете учитывается влияние влажности воздуха и скорости ветра на теплоощущения человека.
  • Tes - Эффективная температура на солнце - температура, которую ощущает человек, с поправкой на солнечный нагрев. Характеристика знойности погоды. Зависит от высоты солнца над горизонтом, облачности и скорости ветра. Ночью, в пасмурную погоду, а также при ветре 12 м/с и более поправка равна нулю.
  • P - Атмосферное давление - приведенное к уровню моря атмосферное давление.
  • Po - Атмосферное давление - измеренное на уровне метеостанции атмосферное давление.
  • Tmin - Минимальная температура - минимум температуры воздуха на высоте 2 м над землей.
  • Tmax - Максимальная температура - максимум температуры воздуха на высоте 2 м над землей.
  • R - Количество осадков - Количество выпавших осадков за период времени, мм. При наведении курсора мыши на число - период времени, за который выпало указанное количество осадков.
  • R24 - Количество осадков - Количество выпавших осадков за 24 часа, мм.
  • S - Снежный покров - Высота снежного покрова, см. При наведении курсора мыши на число - состояние снежного покрова и степень покрытия местности в баллах.